Home   Weather   Södertälje   Past weeks

Flag for Sweden Past Weather in Södertälje, Sweden — Yesterday and Last 2 Weeks

Now
39 °F

Clear.


Feels Like: 32 °F
Forecast: 26 / 32 °F
Wind: 13 mph from Northwest

Location: Stockholm Bromma Airport

Current Time: Dec 5, 2016 at 3:51:27 pm

Latest Report: Dec 5, 2016 at 3:20 pm


Visibility: 10 mi

Pressure: 29.83 "Hg

Humidity: 65%

Dew Point: 28 °F

Location of SödertäljeLocation

Past Weather in Södertälje — Graph

°F

Södertälje Temperature Yesterday

Maximum temperature yesterday: 37 °F (at 10:20 pm)
Minimum temperature yesterday: 18 °F (at 12:20 am)
Average temperature yesterday: 29 °F

High & Low Weather Summary for the Past Weeks

 TemperatureHumidityPressure
High48 °F (Nov 21, 6:50 am)100% (Nov 22, 10:20 pm)30.24 "Hg (Nov 22, 10:20 pm)
Low16 °F (Dec 3, 10:50 pm)56% (Nov 27, 5:20 am)29.36 "Hg (Nov 26, 5:20 pm)
Average36 °F81%29.86 "Hg
* Reported Nov 20 2:20 pm — Dec 5 2:20 pm, Södertälje, Weather by CustomWeather, © 2016

Note: Actual official high and low records may vary slightly from our data, if they occured in-between our weather recording intervals... More about our weather records

Advertising

Södertälje Weather History for the Previous 24 Hours

Scroll right to see more
 ConditionsComfort  
Time TempWeatherWind HumidityBarometerVisibility
2:20 pm
Mon, Dec 5
41 °FSunny.13 mph66%29.83 "Hg10 mi
1:50 pm41 °FSunny.12 mph70%29.80 "Hg10 mi
1:20 pm43 °FSunny.15 mph66%29.80 "Hg10 mi
12:50 pm43 °FSunny.16 mph66%29.80 "Hg10 mi
12:20 pm43 °FSunny.15 mph66%29.80 "Hg10 mi
11:50 am43 °FSunny.16 mph66%29.77 "Hg10 mi
11:20 am43 °FSunny.15 mph66%29.77 "Hg10 mi
10:50 am43 °FSunny.16 mph66%29.77 "Hg10 mi
10:20 am43 °FSunny.18 mph66%29.77 "Hg10 mi
9:50 am43 °FSunny.18 mph66%29.77 "Hg10 mi
9:20 am43 °FSunny.18 mph66%29.77 "Hg10 mi
8:50 am43 °FSunny.16 mph66%29.77 "Hg10 mi
8:20 am43 °FClear.14 mph66%29.77 "Hg10 mi
7:50 am43 °FClear.15 mph66%29.77 "Hg10 mi
7:20 am43 °FClear.16 mph66%29.77 "Hg10 mi
6:50 am41 °FClear.13 mph76%29.77 "Hg10 mi
6:20 am41 °FClear.15 mph76%29.77 "Hg10 mi
5:50 am41 °FClear.12 mph76%29.77 "Hg10 mi
5:20 am41 °FOvercast.13 mph76%29.77 "HgN/A
4:50 am41 °FOvercast.13 mph76%29.77 "HgN/A
4:20 am41 °FOvercast.15 mph76%29.80 "HgN/A
3:50 am39 °FPassing clouds.15 mph81%29.80 "HgN/A
3:20 am39 °FPassing clouds.14 mph81%29.80 "HgN/A
2:50 am39 °FPassing clouds.12 mph81%29.80 "HgN/A
2:20 am39 °FChilly.12 mph81%29.80 "HgN/A
1:50 am37 °FChilly.14 mph87%29.83 "HgN/A
1:20 am37 °FPassing clouds.10 mph87%29.83 "HgN/A
12:50 am37 °FMostly cloudy.10 mph81%29.86 "HgN/A
12:20 am37 °FMostly cloudy.9 mph81%29.86 "HgN/A
11:50 pm
Sun, Dec 4
37 °FOvercast.8 mph81%29.89 "HgN/A
11:20 pm37 °FLight rain. Partly cloudy.10 mph81%29.89 "HgN/A
10:50 pm37 °FPassing clouds.10 mph81%29.89 "HgN/A
10:20 pm37 °FOvercast.10 mph81%29.89 "HgN/A
9:50 pm36 °FClear.10 mph87%29.92 "Hg10 mi
9:20 pm36 °FClear.13 mph87%29.92 "Hg10 mi
8:50 pm36 °FPassing clouds.12 mph87%29.92 "HgN/A
8:20 pm34 °FPartly cloudy.9 mph93%29.92 "HgN/A
7:50 pm34 °FPassing clouds.12 mph93%29.95 "HgN/A
7:20 pm34 °FPassing clouds.14 mph93%29.95 "HgN/A
6:50 pm34 °FLow clouds.14 mph93%29.95 "HgN/A
6:20 pm34 °FPassing clouds.12 mph93%29.98 "HgN/A
5:50 pm34 °FPassing clouds.9 mph93%29.98 "HgN/A
5:20 pm32 °FPassing clouds.7 mph93%29.98 "HgN/A
4:50 pm32 °FPassing clouds.7 mph93%30.01 "HgN/A
4:20 pm32 °FPassing clouds.7 mph93%30.01 "HgN/A
3:50 pm32 °FPassing clouds.9 mph93%30.01 "HgN/A
3:20 pm32 °FPassing clouds.12 mph87%30.04 "HgN/A
Weather by CustomWeather, © 2016

See weather overviewHow to use our weather pages